Location: Caltech
(34.1382°N, 118.1253°W)
Time: 18:32:40
(UTC-08:00)

Cosmos 1484 Rocket - Visible Passes

Search period start: 04 March 2015 00:00
Search period end: 14 March 2015 01:00
Orbit: 512 x 570 km, 97.4° (Epoch: 04 March)

Date Brightness Start Highest point End Pass type
(mag) Time Alt. Az. Time Alt. Az. Time Alt. Az.
04 Mar 3.4 18:34:38 10° SE 18:38:12 34° ENE 18:41:45 10° N visible
04 Mar 6.0 20:11:04 10° WSW 20:12:57 13° W 20:14:38 10° WNW visible
05 Mar 3.7 18:27:51 10° SE 18:31:11 28° ENE 18:34:33 10° NNE visible
05 Mar 5.8 20:03:23 10° SW 20:05:51 16° W 20:08:09 10° WNW visible
06 Mar 3.9 18:21:06 10° SE 18:24:11 23° ENE 18:27:19 10° NNE visible
06 Mar 5.5 19:55:53 10° SW 19:58:45 19° W 20:01:30 10° NW visible
07 Mar 4.2 18:14:26 10° ESE 18:17:10 19° ENE 18:19:59 10° NNE visible
07 Mar 5.2 19:48:30 10° SSW 19:51:39 23° W 19:54:44 10° NW visible
08 Mar 4.8 20:41:10 10° SSW 20:44:34 28° W 20:47:53 10° NW visible
09 Mar 4.4 20:33:54 10° SSW 20:37:28 34° W 20:40:59 10° NNW visible
10 Mar 4.0 20:26:40 10° S 20:30:23 43° W 20:34:02 10° NNW visible
11 Mar 3.5 20:19:31 10° S 20:23:18 54° W 20:27:02 10° NNW visible
12 Mar 3.0 20:12:22 10° S 20:16:12 68° W 20:19:59 10° NNW visible
13 Mar 2.7 20:05:16 10° S 20:09:06 86° WSW 20:12:55 10° NNW visible
